"Pseudo-MPEC" for P222vUj
Created 2024 Dec 2 17:31:38 UT using Find_Orb
Click here for an explanation of pseudo-MPECs
Astrometry:
P222vUj* C2024 11 28.36161802 35 33.699+00 05 16.63 ~BSAH 21.82wXNEOCPF52
P222vUj C2024 11 28.37333302 35 33.790+00 04 26.05 ~BSAH 21.66wXNEOCPF52
P222vUj C2024 11 28.38504202 35 33.867+00 03 35.14 ~BSAH 21.72wXNEOCPF52
P222vUj C2024 11 28.45358302 35 34.457-00 01 16.76 ~BSIl 21.73GVNEOCPF51
P222vUj C2024 11 28.45422502 35 34.443-00 01 20.54 ~BSIl 21.49GVNEOCPF51
P222vUj KC2024 12 01.14807402 36 23.555-03 05 54.38 ~C14H 21.79GVNEOCPV06
P222vUj KC2024 12 01.15201002 36 23.634-03 06 09.94 ~C14H 22.16GVNEOCPV06
P222vUj KC2024 12 01.15594802 36 23.688-03 06 25.45 ~C14H 21.89GVNEOCPV06
P222vUj KC2024 12 01.15988502 36 23.728-03 06 41.08 ~C14H 21.74GVNEOCPV06
P222vUj KC2024 12 02.13461302 36 44.56 -04 09 48.3 ~C242 21.9 GVNEOCPH21
P222vUj KC2024 12 02.14038902 36 44.67 -04 10 10.1 ~C242 22.1 GVNEOCPH21
P222vUj KC2024 12 02.14674702 36 44.80 -04 10 34.3 ~C242 21.9 GVNEOCPH21
Station data:
(F51) Pan-STARRS 1, Haleakala (N20.707234 W156.255910) US/Hawaii.
Observers J. Bulger, T. Lowe, A. Schultz, M. Willman. Measurers K.
Chambers, S. Chastel, T. de Boer, L. Denneau, J. Fairlamb, H. Flewelling,
M. Huber, C.-C. Lin, E. Magnier, Y. Ramanjooloo, R. Wainscoat, R. Weryk.
1.8-m Ritchey-Chrétien + CCD.
(F52) Pan-STARRS 2, Haleakala (N20.707382 W156.255910) US/Hawaii.
Observers J. Bulger, T. Dukes, T. Lowe, A. Schultz, M. Willman. Measurers
K. Chambers, S. Chastel, T. de Boer, L. Denneau, J. Fairlamb, H.
Flewelling, M. Huber, C.-C. Lin, E. Magnier, Y. Ramanjooloo, R. Wainscoat,
R. Weryk. 1.8-m Ritchey-Chrétien + CCD.
(H21) Astronomical Research Observatory, Westfield (N39.483054 W87.968270)
US/Illinois. Observer R. Holmes. Measurers S. Foglia, L. Buzzi, T.
Linder, R. Holmes. 0.76-m f/3.0 astrograph + CCD0.81-m f/4.0 astrograph +
CCD0.61-m f/4.5 astrograph + CCD0.40-m f/5.32 astrograph + CCD.
(V06) Catalina Sky Survey-Kuiper (N32.416871 W110.732550) US/Arizona.
Observers T. A. Pruyne, B. M. Africano, E. J. Christensen, G. A. Farneth,
D. C. Fuls, A. R. Gibbs, A. D. Grauer, H. Gröller, J. A. Johnson, R. A.
Kowalski, S. M. Larson, G. J. Leonard, D. Rankin, R. L. Seaman, F. C.
Shelly, K. W. Wierzchoś. 1.55-m reflector + CCD.
Orbital elements: P222vUj
Perihelion 2024 Dec 14.12399 +/- 1.04 TT = 2:58:32 (JD 2460658.62399)
Epoch 2024 Dec 2.0 TT = JDT 2460646.5 Earth MOID: 0.4262 Ma: 0.0495
M 357.03414494 +/- 0.42 (J2000 ecliptic) AutoNEOCP
n 0.24462704 +/- 0.0144 Peri. 199.24116 +/- 0.7
a 2.53201578 +/- 0.0992 Node 230.59507 +/- 0.053
e 0.4482413 +/- 0.018 Incl. 36.88251 +/- 0.6
P 4.02902 H 21.73 G 0.15 U 9.9
q 1.39706172 +/- 0.00908 Q 3.66696983 +/- 0.189
From 12 observations 2024 Nov. 28-Dec. 2; mean residual 0".27
Residuals in arcseconds: 241128 F52 .01+ .60+ 241128 F51 .10- .59- 241201 V06 .24- .00 241128 F52 .05+ .17+ 241201 V06 .22- .09+ 241202 H21 .17- .26- 241128 F52 .14- .63- 241201 V06 .09+ .06+ 241202 H21 .02+ .02+ 241128 F51 .19+ .45+ 241201 V06 .03+ .10+ 241202 H21 .36+ .12+ Ephemerides (geocentric): Date (UTC) HH RA Dec delta r elong mag " sig PA ---- -------- ------------ ------------ ------ ------ ----- --- -------- 2024 12 02 18 02 36 58.786 -04 48 24.01 .49350 1.4014 140.3 22.1 .799 63 2024 12 02 19 02 36 59.785 -04 50 59.92 .49375 1.4014 140.2 22.1 .838 64 2024 12 02 20 02 37 00.788 -04 53 35.62 .49400 1.4014 140.2 22.1 .877 64 2024 12 02 21 02 37 01.795 -04 56 11.09 .49424 1.4014 140.1 22.1 .918 65 2024 12 02 22 02 37 02.806 -04 58 46.35 .49449 1.4013 140.0 22.1 .959 66 2024 12 02 23 02 37 03.819 -05 01 21.39 .49474 1.4013 140.0 22.1 1.00 66 2024 12 03 00 02 37 04.837 -05 03 56.20 .49498 1.4013 139.9 22.1 1.04 67 2024 12 03 01 02 37 05.858 -05 06 30.80 .49523 1.4012 139.9 22.1 1.09 67 2024 12 03 02 02 37 06.883 -05 09 05.18 .49548 1.4012 139.8 22.2 1.13 68 2024 12 03 03 02 37 07.912 -05 11 39.34 .49573 1.4012 139.7 22.2 1.18 68 2024 12 03 04 02 37 08.944 -05 14 13.28 .49598 1.4011 139.7 22.2 1.22 68 2024 12 03 05 02 37 09.980 -05 16 47.00 .49623 1.4011 139.6 22.2 1.27 69 2024 12 03 06 02 37 11.019 -05 19 20.50 .49648 1.4011 139.5 22.2 1.32 69 2024 12 03 07 02 37 12.062 -05 21 53.78 .49673 1.4010 139.5 22.2 1.36 69 2024 12 03 08 02 37 13.109 -05 24 26.84 .49698 1.4010 139.4 22.2 1.41 70 2024 12 03 09 02 37 14.159 -05 26 59.67 .49723 1.4010 139.4 22.2 1.46 70 2024 12 03 10 02 37 15.213 -05 29 32.29 .49749 1.4009 139.3 22.2 1.51 70 2024 12 03 11 02 37 16.271 -05 32 04.69 .49774 1.4009 139.2 22.2 1.56 70 2024 12 03 12 02 37 17.332 -05 34 36.87 .49799 1.4009 139.2 22.2 1.61 71 2024 12 03 13 02 37 18.397 -05 37 08.83 .49824 1.4009 139.1 22.2 1.66 71 2024 12 03 14 02 37 19.465 -05 39 40.57 .49850 1.4008 139.0 22.2 1.72 71 2024 12 03 15 02 37 20.537 -05 42 12.09 .49875 1.4008 139.0 22.2 1.77 71 2024 12 03 16 02 37 21.613 -05 44 43.39 .49901 1.4008 138.9 22.2 1.82 71 2024 12 03 17 02 37 22.693 -05 47 14.47 .49926 1.4007 138.9 22.2 1.88 72 2024 12 03 18 02 37 23.776 -05 49 45.33 .49952 1.4007 138.8 22.2 1.93 72 2024 12 03 19 02 37 24.862 -05 52 15.97 .49978 1.4007 138.7 22.2 1.99 72 2024 12 03 20 02 37 25.953 -05 54 46.39 .50003 1.4007 138.7 22.2 2.05 72 2024 12 03 21 02 37 27.047 -05 57 16.58 .50029 1.4006 138.6 22.2 2.11 72 2024 12 03 22 02 37 28.144 -05 59 46.56 .50055 1.4006 138.6 22.2 2.16 72 2024 12 03 23 02 37 29.246 -06 02 16.32 .50080 1.4006 138.5 22.2 2.22 72 2024 12 04 00 02 37 30.351 -06 04 45.86 .50106 1.4005 138.4 22.2 2.28 73 2024 12 04 01 02 37 31.459 -06 07 15.18 .50132 1.4005 138.4 22.2 2.34 73 2024 12 04 02 02 37 32.571 -06 09 44.27 .50158 1.4005 138.3 22.2 2.40 73 2024 12 04 03 02 37 33.687 -06 12 13.15 .50184 1.4005 138.2 22.2 2.46 73 2024 12 04 04 02 37 34.807 -06 14 41.81 .50210 1.4004 138.2 22.2 2.53 73 2024 12 04 05 02 37 35.930 -06 17 10.24 .50236 1.4004 138.1 22.2 2.59 73 2024 12 04 06 02 37 37.056 -06 19 38.46 .50262 1.4004 138.1 22.2 2.65 73 2024 12 04 07 02 37 38.187 -06 22 06.46 .50288 1.4003 138.0 22.2 2.72 73 2024 12 04 08 02 37 39.321 -06 24 34.23 .50314 1.4003 137.9 22.2 2.78 73 2024 12 04 09 02 37 40.458 -06 27 01.79 .50341 1.4003 137.9 22.2 2.85 73 2024 12 04 10 02 37 41.600 -06 29 29.13 .50367 1.4003 137.8 22.2 2.91 73 2024 12 04 11 02 37 42.745 -06 31 56.24 .50393 1.4002 137.8 22.2 2.98 73 2024 12 04 12 02 37 43.893 -06 34 23.14 .50420 1.4002 137.7 22.2 3.05 73 2024 12 04 13 02 37 45.045 -06 36 49.82 .50446 1.4002 137.6 22.2 3.12 74 2024 12 04 14 02 37 46.201 -06 39 16.27 .50472 1.4002 137.6 22.2 3.19 74 2024 12 04 15 02 37 47.360 -06 41 42.51 .50499 1.4001 137.5 22.2 3.26 74 2024 12 04 16 02 37 48.524 -06 44 08.52 .50525 1.4001 137.5 22.2 3.33 74 2024 12 04 17 02 37 49.690 -06 46 34.32 .50552 1.4001 137.4 22.2 3.40 74